Weather History for Newberry, MI

Change the Weather History Date:

Thursday, August 14, 2014

  Actual Average Record
Temperature  
Mean Temperature 51 °F -  
Max Temperature 60 °F 73 °F 92 °F (1991)
Min Temperature 42 °F 54 °F 38 °F (1924)
Degree Days  
Heating Degree Days 14    
Growing Degree Days 1 (Base 50)    
Moisture  
Dew Point 42 °F    
Average Humidity 70    
Maximum Humidity 92    
Minimum Humidity 49    
Precipitation  
Precipitation 0.00 in - - ()
Sea Level Pressure  
Sea Level Pressure 30.04 in    
Wind  
Wind Speed 10 mph (NW)    
Max Wind Speed 18 mph    
Max Gust Speed 30 mph    
Visibility 10 miles    
Events      
Averages and records for this station are not official NWS values.
T = Trace of Precipitation, MM = Missing Value Source: NWS Daily Summary

Daily Weather History Graph

Daily Weather History Graph

Search for Another Location

Airport:

Trip Planner

Search our weather history database for the weather conditions in past years. The results will help you decide how hot, cold, wet, or windy it might be!

Date:

Astronomy

Aug. 14, 2014 Rise Set
Actual Time 6:39 AM EDT 8:52 PM EDT
Civil Twilight 6:06 AM EDT 9:25 PM EDT
Nautical Twilight 5:25 AM EDT 10:06 PM EDT
Astronomical Twilight 4:39 AM EDT 10:52 PM EDT
Moon 10:55 PM EDT (8/14) 11:34 AM EDT (8/14)
Length of Visible Light 15h 19m
Length of Day
14h 13m
Waning Gibbous, 79% of the Moon is Illuminated
Aug 14
Waning Gibbous
Aug 17
Last Quarter
Aug 25
New
Sep 2
First Quarter
Sep 8
Full

Hourly Weather History & Observations

Time (EDT) Temp. Windchill Dew Point Humidity Pressure Visibility Wind Dir Wind Speed Gust Speed Precip Events Conditions
12:14 AM 48.4 °F - 44.1 °F 85% 30.06 in 10.0 mi West 8.1 mph - N/A   Overcast
12:34 AM 48.6 °F - 44.1 °F 84% 30.06 in 10.0 mi West 8.1 mph - N/A   Overcast
12:55 AM 47.5 °F - 43.7 °F 87% 30.06 in 10.0 mi West 10.4 mph - N/A   Mostly Cloudy
1:14 AM 45.0 °F 41.2 °F 42.8 °F 92% 30.06 in 10.0 mi West 6.9 mph - N/A   Scattered Clouds
1:34 AM 45.9 °F 41.7 °F 42.8 °F 89% 30.06 in 10.0 mi WNW 8.1 mph - N/A   Clear
1:55 AM 46.6 °F - 43.0 °F 87% 30.05 in 10.0 mi WNW 8.1 mph - N/A   Clear
2:14 AM 46.0 °F 41.4 °F 42.8 °F 88% 30.05 in 10.0 mi WNW 9.2 mph - N/A   Clear
2:35 AM 46.4 °F 41.9 °F 42.6 °F 87% 30.05 in 10.0 mi WNW 9.2 mph - N/A   Clear
2:55 AM 46.0 °F 41.9 °F 42.3 °F 87% 30.06 in 10.0 mi WNW 8.1 mph - N/A   Clear
3:14 AM 46.6 °F - 42.1 °F 84% 30.05 in 10.0 mi WNW 10.4 mph 16.1 mph N/A   Clear
3:35 AM 45.7 °F 42.0 °F 41.9 °F 87% 30.05 in 10.0 mi NW 6.9 mph - N/A   Clear
3:54 AM 45.1 °F 40.8 °F 41.9 °F 88% 30.06 in 10.0 mi WNW 8.1 mph - N/A   Clear
4:14 AM 44.6 °F 40.2 °F 41.9 °F 90% 30.05 in 10.0 mi WNW 8.1 mph - N/A   Clear
4:35 AM 45.0 °F 40.6 °F 41.7 °F 88% 30.05 in 10.0 mi WNW 8.1 mph - N/A   Clear
4:54 AM 44.1 °F 39.5 °F 41.2 °F 90% 30.04 in 10.0 mi WNW 8.1 mph - N/A   Clear
5:14 AM 45.1 °F 40.8 °F 41.7 °F 88% 30.04 in 10.0 mi WNW 8.1 mph - N/A   Clear
5:35 AM 44.6 °F 40.2 °F 41.5 °F 89% 30.04 in 10.0 mi WNW 8.1 mph - N/A   Clear
5:54 AM 45.3 °F 41.1 °F 41.4 °F 86% 30.04 in 10.0 mi WNW 8.1 mph - N/A   Clear
6:14 AM 44.8 °F 40.4 °F 41.0 °F 87% 30.04 in 10.0 mi WNW 8.1 mph - N/A   Clear
6:35 AM 44.8 °F 40.4 °F 41.0 °F 87% 30.05 in 10.0 mi WNW 8.1 mph - N/A   Clear
6:54 AM 42.8 °F 38.6 °F 40.1 °F 90% 30.05 in 10.0 mi West 6.9 mph - N/A   Clear
7:15 AM 43.9 °F 39.9 °F 40.5 °F 88% 30.06 in 10.0 mi NW 6.9 mph - N/A   Clear
7:34 AM 44.8 °F 41.0 °F 41.0 °F 87% 30.06 in 10.0 mi WNW 6.9 mph - N/A   Clear
7:54 AM 45.7 °F 41.5 °F 41.0 °F 84% 30.07 in 10.0 mi NW 8.1 mph - N/A   Clear
8:14 AM 47.3 °F - 41.7 °F 81% 30.08 in 10.0 mi NW 6.9 mph - N/A   Clear
8:35 AM 48.0 °F - 41.9 °F 79% 30.08 in 10.0 mi NW 8.1 mph - N/A   Clear
8:54 AM 49.8 °F - 42.4 °F 76% 30.08 in 10.0 mi NW 9.2 mph - N/A   Clear
9:14 AM 51.6 °F - 42.8 °F 72% 30.08 in 10.0 mi NNW 9.2 mph - N/A   Clear
9:34 AM 52.9 °F - 42.6 °F 68% 30.08 in 10.0 mi NNW 9.2 mph 20.7 mph N/A   Clear
9:54 AM 54.1 °F - 42.1 °F 64% 30.08 in 10.0 mi NNW 10.4 mph 21.9 mph N/A   Clear
10:15 AM 54.5 °F - 41.5 °F 62% 30.08 in 10.0 mi NNW 10.4 mph 27.6 mph N/A   Clear
10:34 AM 55.6 °F - 41.4 °F 59% 30.08 in 10.0 mi NNW 18.4 mph 26.5 mph N/A   Clear
10:54 AM 55.6 °F - 41.5 °F 59% 30.08 in 10.0 mi NNW 12.7 mph 29.9 mph N/A   Clear
11:15 AM 56.3 °F - 40.8 °F 56% 30.08 in 10.0 mi NNW 16.1 mph 29.9 mph N/A   Clear
11:34 AM 56.8 °F - 41.4 °F 56% 30.07 in 10.0 mi NNW 12.7 mph 25.3 mph N/A   Clear
11:54 AM 57.4 °F - 41.7 °F 56% 30.07 in 10.0 mi NNW 18.4 mph 27.6 mph N/A   Clear
12:14 PM 57.6 °F - 42.4 °F 57% 30.07 in 10.0 mi NNW 10.4 mph 27.6 mph N/A   Clear
12:35 PM 57.7 °F - 42.3 °F 56% 30.07 in 7.0 mi NW 15.0 mph 25.3 mph N/A   Clear
12:54 PM 58.6 °F - 43.3 °F 57% 30.06 in 7.0 mi NNW 15.0 mph 26.5 mph N/A   Clear
1:14 PM 58.1 °F - 43.0 °F 57% 30.06 in 10.0 mi NW 13.8 mph 26.5 mph N/A   Clear
1:35 PM 58.5 °F - 43.3 °F 57% 30.06 in 10.0 mi NW 9.2 mph 23.0 mph N/A   Clear
1:54 PM 59.2 °F - 43.0 °F 55% 30.04 in 7.0 mi NNW 11.5 mph 24.2 mph N/A   Clear
2:15 PM 59.4 °F - 42.8 °F 54% 30.03 in 10.0 mi NW 10.4 mph 26.5 mph N/A   Clear
2:34 PM 60.4 °F - 43.3 °F 53% 30.03 in 10.0 mi NW 18.4 mph 25.3 mph N/A   Clear
2:54 PM 60.6 °F - 43.0 °F 52% 30.03 in 10.0 mi NW 17.3 mph 26.5 mph N/A   Clear
3:15 PM 60.6 °F - 42.8 °F 52% 30.02 in 10.0 mi NNW 13.8 mph 21.9 mph N/A   Clear
3:34 PM 60.6 °F - 42.3 °F 51% 30.02 in 10.0 mi NW 15.0 mph 25.3 mph N/A   Clear
3:54 PM 60.6 °F - 41.7 °F 50% 30.02 in 10.0 mi NNW 15.0 mph 23.0 mph N/A   Clear
4:14 PM 60.1 °F - 42.1 °F 51% 30.02 in 10.0 mi NW 15.0 mph 25.3 mph N/A   Clear
4:34 PM 60.4 °F - 41.7 °F 50% 30.02 in 10.0 mi NW 15.0 mph 21.9 mph N/A   Clear
4:55 PM 59.9 °F - 41.9 °F 51% 30.03 in 10.0 mi NNW 12.7 mph 25.3 mph N/A   Clear
5:14 PM 59.9 °F - 41.7 °F 51% 30.03 in 10.0 mi NNW 11.5 mph 24.2 mph N/A   Clear
5:34 PM 60.4 °F - 42.3 °F 51% 30.03 in 10.0 mi NNW 13.8 mph 20.7 mph N/A   Clear
5:55 PM 59.5 °F - 42.1 °F 52% 30.03 in 10.0 mi NW 15.0 mph 23.0 mph N/A   Clear
6:14 PM 59.2 °F - 41.0 °F 51% 30.03 in 10.0 mi NW 11.5 mph 24.2 mph N/A   Clear
6:34 PM 59.0 °F - 39.9 °F 49% 30.03 in 10.0 mi NW 9.2 mph 21.9 mph N/A   Clear
6:55 PM 58.6 °F - 40.1 °F 50% 30.02 in 10.0 mi NNW 9.2 mph - N/A   Clear
7:14 PM 58.6 °F - 39.7 °F 49% 30.02 in 10.0 mi WNW 12.7 mph 23.0 mph N/A   Clear
7:35 PM 57.7 °F - 40.1 °F 52% 30.02 in 10.0 mi NW 9.2 mph - N/A   Clear
7:54 PM 57.2 °F - 39.6 °F 52% 30.01 in 10.0 mi NW 10.4 mph 16.1 mph N/A   Clear
8:14 PM 55.9 °F - 39.4 °F 54% 30.01 in 10.0 mi NW 6.9 mph - N/A   Clear
8:35 PM 54.0 °F - 39.6 °F 58% 30.01 in 10.0 mi NW 5.8 mph - N/A   Clear
8:54 PM 51.6 °F - 40.6 °F 66% 30.01 in 10.0 mi WNW 5.8 mph - N/A   Clear
9:14 PM 50.5 °F - 40.3 °F 68% 30.00 in 10.0 mi WNW 4.6 mph - N/A   Clear
9:35 PM 47.5 °F - 40.5 °F 77% 30.00 in 10.0 mi West 6.9 mph - N/A   Clear
9:54 PM 46.6 °F - 40.5 °F 79% 30.00 in 10.0 mi West 8.1 mph - N/A   Clear
10:14 PM 46.4 °F 42.4 °F 40.5 °F 80% 30.00 in 10.0 mi West 8.1 mph - N/A   Clear
10:35 PM 46.6 °F - 40.3 °F 79% 29.99 in 10.0 mi West 6.9 mph - N/A   Clear
10:54 PM 46.6 °F - 40.3 °F 79% 29.99 in 10.0 mi West 8.1 mph - N/A   Clear
11:15 PM 46.4 °F 42.4 °F 40.1 °F 79% 29.99 in 10.0 mi West 8.1 mph - N/A   Clear
11:34 PM 46.6 °F - 40.3 °F 79% 29.99 in 10.0 mi WSW 8.1 mph - N/A   Clear
11:54 PM 45.5 °F 41.3 °F 40.3 °F 82% 29.99 in 10.0 mi West 8.1 mph - N/A   Clear